Time,TemperatureF,DewpointF,PressureIn,WindDirection,WindDirectionDegrees,WindSpeedMPH,WindSpeedGustMPH,Humidity,HourlyPrecipIn,Conditions,Clouds,dailyrainin,SoftwareType,DateUTC
2013-04-04 00:14:00,38.7,33.0,29.90,East,94,2.0,8.0,80,0.00,,,0.00,weatherlink.com 1.10,2013-04-03 23:14:00,
2013-04-04 00:29:00,38.6,33.0,29.90,SE,131,2.0,6.0,81,0.00,,,0.00,weatherlink.com 1.10,2013-04-03 23:29:00,
2013-04-04 00:44:00,38.4,33.0,29.90,East,98,5.0,5.0,81,0.00,,,0.00,weatherlink.com 1.10,2013-04-03 23:44:00,
2013-04-04 00:59:00,37.8,33.0,29.90,ESE,122,2.0,2.0,82,0.00,,,0.00,weatherlink.com 1.10,2013-04-03 23:59:00,
2013-04-04 01:14:00,37.7,32.0,29.90,SE,129,1.0,3.0,79,0.00,,,0.00,weatherlink.com 1.10,2013-04-04 00:14:00,
2013-04-04 01:29:00,38.3,31.0,29.90,SE,138,3.0,8.0,76,0.00,,,0.00,weatherlink.com 1.10,2013-04-04 00:29:00,
2013-04-04 01:44:00,38.7,31.0,29.90,SE,131,4.0,9.0,74,0.00,,,0.00,weatherlink.com 1.10,2013-04-04 00:44:00,
2013-04-04 02:00:00,38.4,31.0,29.90,SE,138,4.0,7.0,75,0.00,,,0.00,weatherlink.com 1.10,2013-04-04 01:00:00,
2013-04-04 02:15:00,38.3,31.0,29.89,SE,143,3.0,9.0,74,0.00,,,0.00,weatherlink.com 1.10,2013-04-04 01:15:00,
2013-04-04 02:30:00,38.2,31.0,29.89,SE,128,5.0,6.0,75,0.00,,,0.00,weatherlink.com 1.10,2013-04-04 01:30:00,
2013-04-04 02:45:00,38.1,31.0,29.89,SSE,157,3.0,7.0,75,0.00,,,0.00,weatherlink.com 1.10,2013-04-04 01:45:00,
2013-04-04 03:00:00,37.8,31.0,29.89,SE,145,2.0,7.0,75,0.00,,,0.00,weatherlink.com 1.10,2013-04-04 02:00:00,
2013-04-04 03:15:00,37.4,30.0,29.89,SE,131,2.0,5.0,76,0.00,,,0.00,weatherlink.com 1.10,2013-04-04 02:15:00,
2013-04-04 03:30:00,37.1,30.0,29.89,SE,125,1.0,4.0,76,0.00,,,0.00,weatherlink.com 1.10,2013-04-04 02:30:00,
2013-04-04 03:45:00,35.6,29.0,29.89,West,269,0.0,1.0,77,0.00,,,0.00,weatherlink.com 1.10,2013-04-04 02:45:00,
2013-04-04 04:00:00,33.9,28.0,29.89,West,269,0.0,1.0,80,0.00,,,0.00,weatherlink.com 1.10,2013-04-04 03:00:00,
2013-04-04 04:15:00,33.5,28.0,29.89,NW,304,1.0,1.0,81,0.00,,,0.00,weatherlink.com 1.10,2013-04-04 03:15:00,
2013-04-04 04:30:00,32.5,28.0,29.89,NW,312,0.0,2.0,83,0.00,,,0.00,weatherlink.com 1.10,2013-04-04 03:30:00,
2013-04-04 04:45:00,31.7,28.0,29.89,NW,308,0.0,1.0,86,0.00,,,0.00,weatherlink.com 1.10,2013-04-04 03:45:00,
2013-04-04 05:00:00,31.1,28.0,29.89,NW,308,0.0,1.0,87,0.00,,,0.00,weatherlink.com 1.10,2013-04-04 04:00:00,
2013-04-04 05:15:00,30.8,28.0,29.89,NW,313,0.0,2.0,88,0.00,,,0.00,weatherlink.com 1.10,2013-04-04 04:15:00,
2013-04-04 05:30:00,30.6,28.0,29.89,WNW,296,2.0,3.0,88,0.00,,,0.00,weatherlink.com 1.10,2013-04-04 04:30:00,
2013-04-04 05:45:00,30.9,28.0,29.88,North,350,2.0,3.0,88,0.00,,,0.00,weatherlink.com 1.10,2013-04-04 04:45:00,
2013-04-04 06:00:00,31.8,28.0,29.88,North,4,1.0,2.0,86,0.00,,,0.00,weatherlink.com 1.10,2013-04-04 05:00:00,
2013-04-04 06:15:00,31.2,27.0,29.88,SW,229,0.0,2.0,85,0.00,,,0.00,weatherlink.com 1.10,2013-04-04 05:15:00,
2013-04-04 06:30:00,30.6,27.0,29.89,WNW,290,1.0,2.0,87,0.00,,,0.00,weatherlink.com 1.10,2013-04-04 05:30:00,
2013-04-04 06:45:00,31.1,28.0,29.89,NNE,32,0.0,2.0,88,0.00,,,0.00,weatherlink.com 1.10,2013-04-04 05:45:00,
2013-04-04 07:00:00,32.2,29.0,29.89,ESE,110,0.0,2.0,88,0.00,,,0.00,weatherlink.com 1.10,2013-04-04 06:00:00,
2013-04-04 07:15:00,31.9,28.0,29.89,WSW,238,0.0,2.0,85,0.00,,,0.00,weatherlink.com 1.10,2013-04-04 06:15:00,
2013-04-04 07:30:00,32.4,28.0,29.89,West,270,0.0,2.0,85,0.00,,,0.00,weatherlink.com 1.10,2013-04-04 06:30:00,
2013-04-04 07:45:00,33.4,29.0,29.89,NNE,19,1.0,2.0,85,0.00,,,0.00,weatherlink.com 1.10,2013-04-04 06:45:00,
2013-04-04 08:00:00,34.6,30.0,29.90,North,9,3.0,3.0,83,0.00,,,0.00,weatherlink.com 1.10,2013-04-04 07:00:00,
2013-04-04 08:15:00,35.4,30.0,29.90,NE,43,1.0,4.0,81,0.00,,,0.00,weatherlink.com 1.10,2013-04-04 07:15:00,
2013-04-04 08:30:00,36.3,31.0,29.89,ENE,67,1.0,5.0,81,0.00,,,0.00,weatherlink.com 1.10,2013-04-04 07:30:00,
2013-04-04 08:45:00,38.6,32.0,29.89,East,80,5.0,13.0,76,0.00,,,0.00,weatherlink.com 1.10,2013-04-04 07:45:00,
2013-04-04 09:00:00,41.5,35.0,29.90,ESE,120,1.0,15.0,77,0.00,,,0.00,weatherlink.com 1.10,2013-04-04 08:00:00,
2013-04-04 09:15:00,42.4,32.0,29.90,East,90,11.0,17.0,67,0.00,,,0.00,weatherlink.com 1.10,2013-04-04 08:15:00,
2013-04-04 09:30:00,42.9,33.0,29.89,East,85,7.0,19.0,69,0.00,,,0.00,weatherlink.com 1.10,2013-04-04 08:30:00,
2013-04-04 09:45:00,41.1,32.0,29.89,SE,125,10.0,18.0,71,0.00,,,0.00,weatherlink.com 1.10,2013-04-04 08:45:00,
2013-04-04 10:01:00,40.5,30.0,29.89,SE,133,11.0,20.0,66,0.00,,,0.00,weatherlink.com 1.10,2013-04-04 09:01:00,
2013-04-04 10:15:00,43.3,38.0,29.89,South,190,7.0,17.0,81,0.00,,,0.00,weatherlink.com 1.10,2013-04-04 09:15:00,
2013-04-04 10:30:00,40.9,31.0,29.89,SE,129,8.0,18.0,69,0.00,,,0.00,weatherlink.com 1.10,2013-04-04 09:30:00,
2013-04-04 10:45:00,42.3,32.0,29.89,South,184,3.0,17.0,66,0.00,,,0.00,weatherlink.com 1.10,2013-04-04 09:45:00,
2013-04-04 11:01:00,40.3,30.0,29.89,SE,136,11.0,23.0,67,0.00,,,0.00,weatherlink.com 1.10,2013-04-04 10:01:00,
2013-04-04 11:16:00,41.9,31.0,29.89,SE,139,10.0,15.0,66,0.00,,,0.00,weatherlink.com 1.10,2013-04-04 10:16:00,
2013-04-04 11:31:00,42.5,31.0,29.89,East,94,15.0,16.0,65,0.00,,,0.00,weatherlink.com 1.10,2013-04-04 10:31:00,
2013-04-04 11:46:00,41.7,35.0,29.89,SE,136,9.0,18.0,77,0.00,,,0.00,weatherlink.com 1.10,2013-04-04 10:46:00,
2013-04-04 12:01:00,40.5,31.0,29.89,SE,125,9.0,20.0,68,0.00,,,0.00,weatherlink.com 1.10,2013-04-04 11:01:00,
2013-04-04 12:16:00,40.7,31.0,29.89,East,96,13.0,19.0,68,0.00,,,0.00,weatherlink.com 1.10,2013-04-04 11:16:00,
2013-04-04 12:31:00,41.2,31.0,29.88,SE,137,15.0,21.0,66,0.00,,,0.00,weatherlink.com 1.10,2013-04-04 11:31:00,
2013-04-04 12:46:00,40.8,31.0,29.88,SE,142,8.0,20.0,68,0.00,,,0.00,weatherlink.com 1.10,2013-04-04 11:46:00,
2013-04-04 13:01:00,41.5,30.0,29.89,SSE,148,20.0,21.0,64,0.00,,,0.00,weatherlink.com 1.10,2013-04-04 12:01:00,
2013-04-04 13:16:00,41.5,30.0,29.88,SE,129,7.0,19.0,65,0.00,,,0.00,weatherlink.com 1.10,2013-04-04 12:16:00,
2013-04-04 14:01:00,41.8,29.0,29.88,ESE,117,12.0,23.0,61,0.00,,,0.00,weatherlink.com 1.10,2013-04-04 13:01:00,
2013-04-04 14:31:00,42.7,30.0,29.88,SE,136,7.0,20.0,62,0.00,,,0.00,weatherlink.com 1.10,2013-04-04 13:31:00,
2013-04-04 14:46:00,42.9,29.0,29.88,ESE,123,12.0,21.0,58,0.00,,,0.00,weatherlink.com 1.10,2013-04-04 13:46:00,
2013-04-04 15:01:00,42.3,30.0,29.87,ESE,117,9.0,18.0,63,0.00,,,0.00,weatherlink.com 1.10,2013-04-04 14:01:00,
2013-04-04 15:16:00,41.9,30.0,29.87,NE,36,6.0,19.0,63,0.00,,,0.00,weatherlink.com 1.10,2013-04-04 14:16:00,
2013-04-04 15:46:00,42.8,23.0,29.86,ENE,65,6.0,18.0,46,0.00,,,0.00,weatherlink.com 1.10,2013-04-04 14:46:00,
2013-04-04 16:01:00,42.9,28.0,29.86,SE,135,10.0,21.0,55,0.00,,,0.00,weatherlink.com 1.10,2013-04-04 15:01:00,
2013-04-04 16:16:00,42.2,28.0,29.86,East,82,12.0,21.0,57,0.00,,,0.00,weatherlink.com 1.10,2013-04-04 15:16:00,
2013-04-04 16:31:00,42.5,28.0,29.86,NE,41,16.0,18.0,58,0.00,,,0.00,weatherlink.com 1.10,2013-04-04 15:31:00,
2013-04-04 16:46:00,42.5,28.0,29.86,ESE,110,16.0,20.0,56,0.00,,,0.00,weatherlink.com 1.10,2013-04-04 15:46:00,
2013-04-04 17:16:00,42.4,30.0,29.86,East,86,14.0,21.0,61,0.00,,,0.00,weatherlink.com 1.10,2013-04-04 16:16:00,
2013-04-04 17:31:00,42.7,29.0,29.86,ESE,102,9.0,19.0,59,0.00,,,0.00,weatherlink.com 1.10,2013-04-04 16:31:00,
2013-04-04 17:46:00,42.8,28.0,29.86,SE,129,13.0,18.0,57,0.00,,,0.00,weatherlink.com 1.10,2013-04-04 16:46:00,
2013-04-04 18:16:00,42.4,29.0,29.86,East,83,10.0,23.0,60,0.00,,,0.00,weatherlink.com 1.10,2013-04-04 17:16:00,
2013-04-04 18:46:00,42.3,29.0,29.86,East,98,9.0,17.0,60,0.00,,,0.00,weatherlink.com 1.10,2013-04-04 17:46:00,
2013-04-04 19:16:00,41.8,29.0,29.87,North,5,4.0,19.0,62,0.00,,,0.00,weatherlink.com 1.10,2013-04-04 18:16:00,
2013-04-04 19:31:00,41.7,30.0,29.87,East,94,18.0,23.0,63,0.00,,,0.00,weatherlink.com 1.10,2013-04-04 18:31:00,
2013-04-04 19:46:00,41.5,30.0,29.87,East,98,7.0,15.0,64,0.00,,,0.00,weatherlink.com 1.10,2013-04-04 18:46:00,
2013-04-04 20:02:00,41.3,31.0,29.87,ESE,109,10.0,16.0,66,0.00,,,0.00,weatherlink.com 1.10,2013-04-04 19:02:00,
2013-04-04 20:16:00,41.2,31.0,29.88,ESE,120,11.0,12.0,67,0.00,,,0.00,weatherlink.com 1.10,2013-04-04 19:16:00,
2013-04-04 20:32:00,41.2,31.0,29.88,ENE,58,5.0,12.0,68,0.00,,,0.00,weatherlink.com 1.10,2013-04-04 19:32:00,
2013-04-04 20:46:00,41.0,32.0,29.88,SE,129,7.0,15.0,69,0.00,,,0.00,weatherlink.com 1.10,2013-04-04 19:46:00,
2013-04-04 21:02:00,40.8,32.0,29.88,ESE,114,5.0,19.0,70,0.00,,,0.00,weatherlink.com 1.10,2013-04-04 20:02:00,
2013-04-04 21:46:00,40.6,32.0,29.89,NE,47,4.0,15.0,71,0.00,,,0.00,weatherlink.com 1.10,2013-04-04 20:46:00,
2013-04-04 22:01:00,40.3,32.0,29.89,East,98,7.0,9.0,73,0.00,,,0.00,weatherlink.com 1.10,2013-04-04 21:01:00,
2013-04-04 22:16:00,39.9,32.0,29.89,East,88,4.0,10.0,73,0.00,,,0.00,weatherlink.com 1.10,2013-04-04 21:16:00,
2013-04-04 22:31:00,39.6,32.0,29.89,East,101,4.0,10.0,74,0.00,,,0.00,weatherlink.com 1.10,2013-04-04 21:31:00,
2013-04-04 22:46:00,39.3,32.0,29.89,NE,53,3.0,8.0,75,0.00,,,0.00,weatherlink.com 1.10,2013-04-04 21:46:00,
2013-04-04 23:01:00,38.8,32.0,29.89,East,84,2.0,7.0,76,0.00,,,0.00,weatherlink.com 1.10,2013-04-04 22:01:00,
2013-04-04 23:16:00,38.1,32.0,29.89,East,98,2.0,5.0,77,0.00,,,0.00,weatherlink.com 1.10,2013-04-04 22:16:00,
2013-04-04 23:46:00,37.4,32.0,29.89,ENE,58,2.0,6.0,80,0.00,,,0.00,weatherlink.com 1.10,2013-04-04 22:46:00,